Change the Weather History Date:

Friday, December 14, 2012

  Actual Average Record
Temperature  
Mean Temperature 21 °F 14 °F  
Max Temperature 31 °F 22 °F 48 °F (1998)
Min Temperature 10 °F 6 °F -32 °F (1901)
Degree Days  
Heating Degree Days 44 51  
Month to date heating degree days 611 674  
Since 1 July heating degree days 2520 2636  
Cooling Degree Days 0 0  
Month to date cooling degree days 0 0  
Year to date cooling degree days 795 551  
Moisture  
Dew Point 15 °F    
Average Humidity 62    
Maximum Humidity 92    
Minimum Humidity 32    
Precipitation  
Precipitation 0.00 in 0.03 in 1.23 in (1927)
Month to date precipitation 0.14 0.37  
Year to date precipitation 14.29 22.15  
Snow  
Snow 0.00 in 0.40 in 14.30 in (1927)
Month to date snowfall 1.9 4.8  
Since 1 July snowfall 10.3 13.4  
Snow Depth 1.00 in    
Sea Level Pressure  
Sea Level Pressure 29.94 in    
Wind  
Wind Speed 10 mph (SSE)    
Max Wind Speed 20 mph    
Max Gust Speed 24 mph    
Visibility 6 miles    
Events      
T = Trace of Precipitation, MM = Missing Value Source: NWS Daily Summary

Daily Weather History Graph

Daily Weather History Graph

Search for Another Location

Airport or City:

Trip Planner

Search our weather history database for the weather conditions in past years. The results will help you decide how hot, cold, wet, or windy it might be!

Date:

Astronomy

Dec. 14, 2012 Rise Set
Actual Time 8:05 AM CST 4:38 PM CST
Civil Twilight 7:30 AM CST 5:14 PM CST
Nautical Twilight 6:51 AM CST 5:52 PM CST
Astronomical Twilight 6:14 AM CST 6:29 PM CST
Moon 9:07 AM CST (12/14) 6:37 PM CST (12/14)
Length of Visible Light 9h 43m
Length of Day
8h 33m
Waxing Crescent, 3% of the Moon is Illuminated
Dec 14
Waxing Crescent
Dec 19
First Quarter
Dec 28
Full
Jan 4
Last Quarter
Jan 11
New

Hourly Weather History & Observations

Time (CST) Temp. Windchill Dew Point Humidity Pressure Visibility Wind Dir Wind Speed Gust Speed Precip Events Conditions
12:31 AM 33.8 °F 28.6 °F 10.4 °F 38% 30.06 in 9.0 mi SE 5.8 mph - N/A   Overcast
12:53 AM 32.0 °F 25.6 °F 10.0 °F 40% 30.10 in 9.0 mi SSE 6.9 mph - N/A   Scattered Clouds
1:53 AM 28.0 °F 21.7 °F 8.1 °F 43% 30.09 in 9.0 mi SSE 5.8 mph - N/A   Clear
2:53 AM 33.1 °F 26.9 °F 7.0 °F 34% 30.11 in 8.0 mi South 6.9 mph - N/A   Clear
3:53 AM 28.9 °F 22.8 °F 7.0 °F 40% 30.09 in 9.0 mi South 5.8 mph - N/A   Partly Cloudy
4:11 AM 28.4 °F 22.2 °F 8.6 °F 43% 30.04 in 9.0 mi SSE 5.8 mph - N/A   Mostly Cloudy
4:49 AM 28.4 °F 20.4 °F 8.6 °F 43% 30.02 in 8.0 mi SSE 8.1 mph - N/A   Scattered Clouds
4:53 AM 28.0 °F 19.3 °F 8.1 °F 43% 30.07 in 8.0 mi SSE 9.2 mph - N/A   Partly Cloudy
5:34 AM 30.2 °F 23.4 °F 10.4 °F 44% 30.00 in 2.5 mi SSE 6.9 mph - N/A   Haze
5:42 AM 30.2 °F 22.6 °F 10.4 °F 44% 29.99 in 1.0 mi SSE 8.1 mph - N/A   Haze
5:53 AM 30.9 °F 22.8 °F 12.0 °F 46% 30.03 in 3.0 mi SSE 9.2 mph - N/A   Haze
6:42 AM 15.8 °F 2.7 °F 12.2 °F 86% 29.97 in 5.0 mi SE 11.5 mph - N/A   Overcast
6:53 AM 15.8 °F 3.4 °F 12.0 °F 85% 30.01 in 6.0 mi SE 10.4 mph - N/A   Scattered Clouds
7:53 AM 17.6 °F 5.0 °F 14.0 °F 86% 30.01 in 6.0 mi SSE 11.5 mph - N/A   Clear
8:15 AM 15.8 °F 2.7 °F 14.0 °F 93% 29.96 in 5.0 mi SSE 11.5 mph - N/A   Scattered Clouds
8:23 AM 15.8 °F 1.4 °F 14.0 °F 93% 29.96 in 5.0 mi SSE 13.8 mph - N/A   Mostly Cloudy
8:53 AM 15.8 °F 4.2 °F 14.0 °F 93% 30.01 in 5.0 mi SSE 9.2 mph - N/A   Mostly Cloudy
9:09 AM 17.6 °F 8.2 °F 15.8 °F 93% 29.96 in 5.0 mi SSE 6.9 mph - N/A   Scattered Clouds
9:53 AM 17.6 °F 5.7 °F 15.1 °F 90% 30.00 in 5.0 mi South 10.4 mph - N/A   Clear
10:53 AM 21.2 °F 8.3 °F 17.1 °F 84% 29.97 in 4.0 mi SSE 13.8 mph - N/A   Clear
11:53 AM 30.0 °F 20.5 °F 21.0 °F 69% 29.94 in 6.0 mi SSE 11.5 mph - N/A   Haze
12:53 PM 30.9 °F 19.8 °F 21.0 °F 67% 29.91 in 6.0 mi South 16.1 mph 23.0 mph N/A   Haze
1:53 PM 28.4 °F 17.0 °F 21.0 °F 74% 29.87 in 6.0 mi SSE 15.0 mph 23.0 mph N/A   Haze
2:53 PM 32.0 °F 23.0 °F 23.0 °F 69% 29.84 in 7.0 mi SSE 11.5 mph 19.6 mph N/A   Clear
3:53 PM 32.0 °F 22.1 °F 21.9 °F 66% 29.83 in 7.0 mi SSE 13.8 mph - N/A   Clear
4:53 PM 30.9 °F 21.7 °F 21.9 °F 69% 29.83 in 8.0 mi SSE 11.5 mph - N/A   Clear
5:53 PM 30.0 °F 19.5 °F 21.0 °F 69% 29.82 in 9.0 mi SE 13.8 mph - N/A   Clear
6:53 PM 28.9 °F 18.2 °F 19.9 °F 69% 29.83 in 8.0 mi SSE 13.8 mph - N/A   Clear
7:53 PM 28.9 °F 18.2 °F 19.0 °F 67% 29.81 in 8.0 mi SE 13.8 mph - N/A   Clear
8:53 PM 28.0 °F 17.5 °F 19.0 °F 69% 29.82 in 8.0 mi SE 12.7 mph - N/A   Clear
9:53 PM 27.0 °F 20.5 °F 19.0 °F 72% 29.79 in 7.0 mi SE 5.8 mph - N/A   Clear
10:53 PM 26.1 °F - 19.0 °F 75% 29.78 in 7.0 mi Calm Calm - N/A   Clear
11:53 PM 21.0 °F - 16.0 °F 81% 29.75 in 6.0 mi Calm Calm - N/A   Haze